Location: Kefferhausen
(51.3130°N, 10.2844°E)
Time: 19:08:02
(UTC+00:00)

Daily predictions for brighter satellites

Satellite Brightness Start Highest point End
(mag) Time Altitude Azimuth Time Altitude Azimuth Time Altitude Azimuth
Nadezhda 3 Rocket 4.2 17:28:07 10° N 17:34:21 52° ENE 17:40:33 10° SSE
Sich 1 3.1 17:30:53 10° S 17:35:17 86° E 17:39:45 10° N
Cosmos 1461 3.2 17:32:20 10° SSW 17:37:01 66° SE 17:41:44 10° NE
ATLAS 5 CENTAUR R/B 3.4 17:22:27 10° SW 17:37:34 82° NW 17:41:32 10° NE
Cosmos 1697 Rocket 4.1 17:33:53 10° WSW 17:39:10 39° NW 17:44:28 10° NNE
Meteor 1-25 Rocket 4.3 17:33:40 10° S 17:39:17 57° E 17:44:51 10° NNE
Cosmos 2074 Rocket 4.0 17:37:11 10° S 17:43:24 70° E 17:49:37 10° NNE
Cosmos 2154 Rocket 4.2 17:37:49 10° SSE 17:43:42 48° E 17:49:36 10° NNE
Abrixas rocket 2.6 17:41:27 10° SW 17:43:44 32° SSE 17:45:57 11° ESE
YAOGAN 1 2.5 17:40:30 10° SSE 17:44:47 71° ENE 17:49:07 10° N
Helios 1A Rocket 3.2 17:41:09 10° SE 17:45:00 44° ENE 17:48:51 10° N
FALCON 9 DEB 3.1 17:42:17 10° W 17:45:27 64° N 17:48:33 10° ENE
APEX 4.3 17:42:52 10° NW 17:45:30 33° WSW 17:47:59 10° S
COSMO-SKYMED 1 2.7 17:44:22 10° NNE 17:48:44 82° WNW 17:53:05 10° SSW
Cosmos 2219 Rocket 3.8 17:48:21 10° ESE 17:50:06 11° E 17:51:51 10° ENE
SJ-6B 4.3 17:47:39 10° ESE 17:50:38 20° ENE 17:53:37 10° NNE
GP-B 3.9 17:48:25 10° SE 17:52:17 30° ENE 17:56:10 10° NNE
Cosmos 2263 Rocket 3.7 17:48:47 10° NW 17:53:57 40° WSW 17:59:06 10° S
Meteor 1-18 Rocket 4.3 17:48:42 10° N 17:54:40 73° ENE 18:00:34 10° SSE
Cosmos 968 Rocket 3.9 17:49:41 10° NNW 17:54:57 72° WSW 18:00:11 10° SSE
Cosmos 1992 Rocket 4.3 17:50:59 10° S 17:55:55 44° ESE 18:00:52 10° NE
SL-16 R/B 2.2 17:50:50 10° SSW 17:56:25 64° ESE 18:02:04 10° NE
ARGOS 3.1 17:52:32 10° SSE 17:57:56 73° ENE 18:03:23 10° NNW
FALCON 9 DEB 3.2 17:54:47 10° W 17:57:57 61° N 18:00:32 14° ENE
USA 234 4.3 17:53:05 10° ENE 17:58:20 25° SE 18:03:34 10° S
Cosmos 1486 Rocket 4.3 17:53:25 10° NNW 17:58:43 76° WSW 18:04:00 10° SSE
Cosmos 1515 3.6 17:55:12 10° N 17:59:04 85° E 18:02:52 10° S
Okean 1 3.3 17:55:05 10° N 17:59:08 82° E 18:03:11 10° SSE
SJ 16-02 3.2 17:58:11 10° N 18:00:44 15° NE 18:02:34 12° ENE
SeaSat 1 3.1 17:57:02 10° NE 18:01:33 34° ESE 18:06:01 10° S
Okean 1-7 3.6 17:58:32 10° N 18:02:36 35° ENE 18:06:36 10° SE
Cosmos 1633 Rocket 3.1 17:59:23 10° S 18:03:48 87° E 18:08:16 10° N
Cosmos 2184 Rocket 4.0 17:57:49 10° S 18:04:00 90° W 18:10:16 10° N
OBJECT-B 2.4 18:03:23 15° E 18:04:18 17° ENE 18:06:29 10° NNE
CZ-2C R/B 3.0 18:01:31 10° NNE 18:06:48 44° E 18:11:55 10° S
CZ-4 R/B 2.0 18:05:28 10° S 18:09:16 56° W 18:13:09 10° NNW
H-2A R/B 2.5 18:03:55 10° S 18:09:21 70° WSW 18:14:48 10° NNW
SAR-Lupe-4 3.6 18:05:59 10° NNE 18:09:30 52° E 18:13:00 10° S
USA 305 3.2 18:07:16 10° W 18:11:30 62° N 18:14:50 16° ENE
Gbstr 26 Del rocket 3.3 18:09:48 10° W 18:14:14 89° N 18:18:27 17° E
SL-8 Rocket 4.5 18:10:11 10° SSE 18:15:44 36° E 18:21:18 10° NNE
Cosmos 2237 4.4 18:10:16 10° S 18:15:46 51° ESE 18:21:19 10° NE
Meteor 1-20 Rocket 4.4 18:10:47 10° SSW 18:16:14 75° WNW 18:21:46 10° N
SL-4 R/B 1.5 18:12:57 10° W 18:16:32 87° S 18:18:38 22° ESE
USA 307 3.2 18:18:34 10° W 18:22:49 61° N 18:25:41 20° ENE
FALCON 9 DEB 3.7 18:20:42 10° WNW 18:24:03 51° SSW 18:26:13 19° SE
USA 186 1.6 18:25:07 35° ENE 18:25:07 35° ENE 18:27:26 10° N
ATLAS CENTAUR R/B 1.6 18:21:57 10° S 18:25:17 36° ESE 18:26:57 23° ENE
Cosmos 1354 Rocket 4.0 18:20:09 10° NNW 18:25:27 86° WSW 18:30:41 10° SSE
USA 306 3.2 18:21:59 10° W 18:26:13 60° N 18:28:56 21° ENE
ERS-2 2.0 18:23:07 10° NNE 18:26:48 88° ESE 18:30:27 10° SSW
FALCON 9 DEB 3.1 18:25:19 10° WNW 18:28:28 62° N 18:29:48 30° ENE
SAR-Lupe-1 4.0 18:25:20 10° NNE 18:28:57 90° ESE 18:32:32 10° SSW
Cosmos 1378 4.3 18:25:58 10° NNE 18:29:04 24° ENE 18:29:16 24° ENE
Okean-O 3.7 18:24:52 10° S 18:29:09 47° W 18:33:27 10° NNW
Cosmos 1844 Rocket 2.7 18:23:38 10° NNW 18:29:15 85° WSW 18:34:49 10° SSE
FALCON 9 DEB 3.1 18:27:15 10° W 18:30:26 62° N 18:31:45 31° ENE
CSL-04 Rocket 3.8 18:24:54 10° SSE 18:30:27 80° WSW 18:36:00 10° NNW
Cosmos 2366 rocket 4.5 18:25:00 10° SSE 18:30:43 38° E 18:36:31 10° NNE
CSL-04 Debris 4.4 18:26:22 10° S 18:31:48 74° WSW 18:37:19 10° NNW
USA 308 3.2 18:29:11 10° W 18:33:26 60° N 18:35:51 24° ENE
Cosmos 1777 Rocket 4.1 18:28:56 10° NNW 18:34:08 58° ENE 18:37:58 18° SE
Cosmos 1666 3.0 18:31:29 10° SSE 18:34:59 40° E 18:38:30 10° NNE
Cosmos 1503 Rocket 4.4 18:30:29 10° NNW 18:35:38 64° WSW 18:40:44 10° S
PSLV R/B 4.5 18:33:49 10° N 18:37:52 60° WNW 18:41:52 10° SSW
Cosmos 2341 Rocket 4.0 18:32:50 10° S 18:39:02 64° E 18:45:15 10° NNE
Meteor 1-5 Rocket 4.1 18:34:05 10° S 18:39:20 59° E 18:44:47 10° NNE
SPOT 3 Rocket 4.5 18:37:59 24° E 18:39:39 29° ENE 18:44:08 10° N
Cosmos 1844 3.8 18:35:14 10° NNW 18:41:04 84° WSW 18:46:47 10° SSE
Okean 3 3.8 18:37:08 10° N 18:41:12 43° ENE 18:42:57 28° SE
CZ-4B R/B 4.2 18:39:32 10° NNW 18:41:46 19° WNW 18:44:00 10° WSW
Cosmos 1470 Rocket 4.0 18:38:36 10° SSW 18:43:03 67° WNW 18:47:30 10° N
Cosmos 2221 Rocket 4.4 18:41:32 10° N 18:45:25 29° ENE 18:45:39 29° ENE
Cosmos 2360 Rocket 2.1 18:40:11 10° SSW 18:45:47 70° ESE 18:51:28 10° NNE
Ariane Rocket 3.1 18:42:04 17° SE 18:45:49 55° ENE 18:50:48 10° N
Cosmos 2278 Rocket 2.9 18:41:21 10° NNW 18:46:35 35° NE 18:48:36 27° E
Cosmos 1727 Rocket 4.2 18:43:20 10° N 18:49:17 46° ENE 18:52:57 23° SE
Meteor 2-4 Rocket 4.2 18:46:59 10° NNW 18:52:46 68° W 18:58:37 10° S
Cosmos 1703 Rocket 3.7 18:48:38 10° NNW 18:53:04 75° W 18:57:25 10° S
Cosmos 1500 3.6 18:50:02 10° SSW 18:53:44 61° WNW 18:57:27 10° N
Cosmos 1689 Rocket 4.0 18:52:41 10° N 18:55:17 31° WNW 18:57:53 10° SW
Cosmos 2333 Rocket 2.5 18:50:44 10° S 18:56:00 40° ESE 19:01:19 10° NE
Cosmos 2218 Rocket 4.0 18:51:23 10° S 18:57:38 59° E 19:03:54 10° NNE
ERBS 3.3 18:58:18 10° W 19:01:28 40° NNW 19:02:19 33° NNE
Cosmos 1980 Rocket 4.4 18:58:14 10° W 19:02:43 23° NW 19:07:13 10° NNE
Cosmos 1933 Rocket 4.1 18:59:40 10° SSW 19:03:58 60° WNW 19:08:21 10° N
Cosmos 1943 Rocket 4.0 19:01:49 10° N 19:05:25 17° NNE 19:06:52 15° NE
Resurs 01 Rocket 2.0 19:12:41 43° ENE 19:12:41 43° ENE 19:16:39 10° N
Cosmos 864 Rocket 4.3 19:08:16 10° S 19:14:24 71° E 19:20:36 10° NNE
Cosmos 2322 Rocket 3.1 19:10:31 10° SW 19:15:58 49° NW 19:21:27 10° NNE
SME Rocket 4.2 19:08:13 10° NNE 19:17:02 74° ESE 19:22:36 10° S
Abrixas rocket 4.1 19:15:11 10° WSW 19:16:07 19° WSW 19:16:07 19° WSW
Lacrosse 4 Rocket 3.6 19:13:37 10° S 19:14:29 15° S 19:14:29 15° S
Cosmos 1959 Rocket 4.3 19:13:43 10° S 19:19:48 80° E 19:25:57 10° NNE
FALCON 9 DEB 3.8 19:18:18 10° WNW 19:20:46 49° WNW 19:20:46 49° WNW
Cosmos 192 4.2 19:18:15 10° SSW 19:23:08 72° ESE 19:28:04 10° NNE
SJ-6B 3.6 19:22:30 22° S 19:24:58 52° W 19:28:57 10° NNW
COSMOS 2428 3.1 19:20:33 10° S 19:32:11 - NE 19:24:51 43° SSE
ASTEX 1 3.3 19:21:20 10° N 19:26:16 89° E 19:30:11 16° S
Meteor 1-23 Rocket 4.1 19:23:02 10° N 19:28:39 79° ENE 19:30:27 45° SSE
MOS 1 4.5 19:25:33 19° S 19:29:47 72° WSW 19:35:29 10° NNW
Cosmos 2219 Rocket 2.0 19:27:25 10° SSW 19:32:56 65° ESE 19:38:31 10° NE
Meteor 1-11 Rocket 3.6 19:27:21 10° S 19:33:04 89° E 19:38:43 10° NNE
OBJECT-B 2.2 19:36:26 37° W 19:36:26 37° W 19:39:21 10° NNW
SeaSat 1 3.4 19:34:26 10° NNE 19:39:12 48° NW 19:43:55 10° WSW
Resurs 1-3 3.8 19:38:48 60° SSW 19:39:24 69° WSW 19:43:49 10° NNW
SJ 16-02 1.4 19:35:38 10° NNW 19:39:34 69° N 19:39:34 69° N
SL-16 R/B 3.9 19:35:57 10° WSW 19:40:58 31° NW 19:46:00 10° NNE
Terra 3.9 19:42:57 16° NNE 19:42:57 16° NNE 19:44:23 10° NNE
USA 234 3.1 19:39:54 44° ENE 19:42:07 71° SE 19:48:40 10° SW
Cosmos 1536 4.3 19:46:16 29° N 19:46:16 29° N 19:48:18 10° N
CZ-2C R/B 4.2 19:42:01 10° N 19:46:59 35° WNW 19:51:51 10° SW
Meteor 2-20 Rocket 4.3 19:42:01 10° N 19:48:10 79° E 19:49:08 63° SE
USA 281 4.3 19:47:39 27° NE 19:48:16 27° NE 19:53:37 10° NNW
Cosmos 2369 Rocket 3.9 19:46:45 10° NNW 19:50:37 19° NNE 19:50:42 19° NNE
USA 305 3.5 19:47:30 10° WNW 19:50:56 54° NW 19:50:56 54° NW
BREEZE-M DEB (TANK) 3.1 19:48:52 10° W 19:51:09 52° SW 19:51:09 52° SW
Cosmos 2322 3.8 19:47:16 10° SW 19:52:59 78° WNW 19:58:46 10° NNE
SL-4 R/B 3.9 19:52:41 10° W 19:54:13 21° WSW 19:54:13 21° WSW
Cosmos 1898 Rocket 3.9 19:53:35 10° NNW 19:57:51 52° NNE 19:57:51 52° NNE
Spot 2 Rocket 4.3 20:01:34 42° NNE 20:01:34 42° NNE 20:05:11 10° N
Gbstr 26 Del rocket 3.5 19:56:25 10° W 20:00:59 78° W 20:00:59 78° W
ERS-1 Rocket 4.4 20:04:10 28° NNE 20:04:10 28° NNE 20:06:54 10° N
USA 307 4.0 19:58:50 10° WNW 20:01:49 43° WNW 20:01:49 43° WNW
ATLAS CENTAUR R/B 3.1 20:00:52 10° WSW 20:03:11 28° WNW 20:03:11 28° WNW
USA 306 4.1 20:02:11 10° WNW 20:05:03 41° WNW 20:05:03 41° WNW
USA 308 4.4 20:09:25 10° WNW 20:12:00 36° WNW 20:12:00 36° WNW
NOSS 3-3 (C) 4.5 20:10:02 10° NW 20:17:25 76° SW 20:18:47 63° S
SPOT 3 Rocket 4.1 20:18:38 52° WSW 20:18:49 52° W 20:23:57 10° NNW
ARIANE 5 R/B 4.3 20:21:37 28° N 20:21:37 28° N 20:23:46 10° NNW
SPOT 1/Viking Rocket 4.3 20:29:56 47° NNW 20:29:56 47° NNW 20:33:38 10° NNW
Cosmos 2360 Rocket 4.0 20:25:25 10° WSW 20:30:19 29° NW 20:35:15 10° NNE
Cosmos 2278 Rocket 2.8 20:25:24 10° NW 20:30:28 53° W 20:30:28 53° W
Cosmos 2333 Rocket 3.2 20:34:48 10° WSW 20:40:15 45° NW 20:45:46 10° NNE
Cosmos 1821 Rocket 4.3 20:41:55 62° WNW 20:41:56 62° WNW 20:48:05 10° N
Resurs 01 Rocket 3.8 20:50:14 23° WNW 20:50:14 23° WNW 20:52:48 10° NW
Cosmos 1943 Rocket 3.5 20:45:01 10° NNW 20:48:24 34° N 20:48:24 34° N
Cosmos 2219 Rocket 3.8 21:12:24 10° WSW 21:17:20 30° NW 21:22:18 10° NNE
SJ 16-02 4.3 21:15:51 10° WNW 21:16:35 12° WNW 21:16:35 12° WNW
Terra 4.3 21:21:49 18° NNW 21:21:49 18° NNW 21:23:03 10° NNW
USA 234 4.1 21:27:15 43° WNW 21:27:15 43° WNW 21:31:35 10° W
USA 281 4.1 21:34:30 43° NNW 21:34:30 43° NNW 21:38:42 10° NNW
Cosmos 2369 Rocket 4.1 21:30:15 10° NNW 21:32:29 24° NNW 21:32:29 24° NNW
